Regional Weather Roundup
Issued by NWS

Home | Current Version | Previous Version | Text Only | Print | Product List | Glossary Off
Versions: 1 2 3 4 5 6 7 8 9 10 11 12 13 14 15 16 17 18 19 20 21 22 23 24 25 26 27

000
ASUS45 KBOU 171407
RWRCO

WEATHER ROUNDUP FOR COLORADO
NATIONAL WEATHER SERVICE DENVER/BOULDER CO
800 AM MDT THU AUG 17 2017

NOTE: "FAIR" INDICATES FEW OR NO CLOUDS BELOW 12000 FEET WITH NO
SIGNIFICANT WEATHER AND/OR OBSTRUCTIONS TO VISIBILITY.

COZ001>005-013-030-031-171500-
...NORTHWEST COLORADO...

CITY           SKY/WX    TMP DP  RH WIND       PRES   REMARKS
CRAIG          FAIR      55  41  59 CALM      30.28R
HAYDEN         FAIR      54  39  58 E7        30.31R
MEEKER         FAIR      54  39  57 CALM      30.29R
RABBIT EARS PA FAIR      45  32  61 W6        30.51R
STEAMBOAT SPGS FAIR      50  40  67 CALM      30.31S
WALDEN         CLOUDY    43  36  75 CALM      30.39R
$$

COZ006>008-011-171500-
...WEST CENTRAL VALLEYS...

CITY           SKY/WX    TMP DP  RH WIND       PRES   REMARKS
GRAND JUNCTION FAIR      66  39  37 SE7       30.18R
MONTROSE       FAIR      58  38  47 SE7       30.27R
EAGLE          FAIR      51  37  58 CALM      30.35R
RIFLE          FAIR      57  40  52 CALM      30.26R
DELTA          FAIR      63  38  40 E7        30.24R
NUCLA          FAIR      57  30  35 E6        30.31R
$$

COZ017>023-064>068-171500-
...SOUTHWEST COLORADO...

CITY           SKY/WX    TMP DP  RH WIND       PRES   REMARKS
DURANGO        FAIR      52  33  48 E3        30.32R
CORTEZ         FAIR      54  37  52 SE3       30.27R
PAGOSA SPRINGS PTSUNNY   51  33  50 CALM      30.39R
TELLURIDE      FAIR      52  28  39 SE5       30.49R
WOLF CREEK PAS PTSUNNY   46  25  42 SW3       30.69R
$$

COZ009-010-012-014-032>034-037-058>063-171500-
...CENTRAL COLORADO...

CITY           SKY/WX    TMP DP  RH WIND       PRES   REMARKS
ASPEN          FAIR      51  35  54 S7        30.37R
BUENA VISTA    FAIR      51  38  61 N6        30.42R
COPPER MTN     FAIR      46  28  49 W7        30.62R
BERTHOUD PASS  FAIR      37  34  87 NW20G25   30.62R
COTTONWOOD PAS FAIR      52  34  50 CALM      30.50R
GUNNISON       FAIR      44  33  65 VRB5      30.44R
KREMMLING      FAIR      48  41  76 CALM      30.39R
LEADVILLE      FAIR      43  34  70 CALM      30.49R
MONARCH PASS   FAIR      43  27  52 W14       30.73R
SALIDA         FAIR      53  41  63 N6        30.47R
SUNLIGHT       PTSUNNY   46  32  57 W3        30.57S
WILKERSON PASS FAIR      41  39  93 W6        30.60R
$$

COZ069>075-171500-
...SAN LUIS VALLEY/SANGRE DE CRISTO MOUNTAINS...

CITY           SKY/WX    TMP DP  RH WIND       PRES   REMARKS
ALAMOSA        PTSUNNY   48  36  63 CALM      30.37R
DEL NORTE      FAIR      52  34  50 W12       30.40S
LA VETA PASS   NOT AVBL
SAGUACHE       FAIR      52  34  50 NW12      30.40S
$$

COZ035-036-038>040-171500-
...NORTHERN COLORADO FRONT RANGE...

CITY           SKY/WX    TMP DP  RH WIND       PRES   REMARKS
DENVER INTL AP FAIR      68  49  50 SW17      30.16R
DMNS CITY PARK   N/A     64  49  56 SE9       30.18R
AURORA         MOSUNNY   65  49  56 S13       30.19R
FRONT RANGE AP FAIR      68  50  52 SW14      30.18S
ERIE MUNI ARPT FAIR      61  51  69 CALM      30.21R
BOULDER MUN AP FAIR      59  46  63 CALM      30.16S
CENTENNIAL     FAIR      67  47  48 SW15      30.20S
BROOMFIELD     PTSUNNY   63  43  48 SW3       30.19R
FORT COLLINS   FAIR      59  51  75 CALM      30.16R
LONGMONT       FAIR      60  51  71 CALM      30.17S
$$

COZ041-046-047-076>085-087-088-171500-
...PIKES PEAK/PALMER DIVIDE AND SOUTHERN FOOTHILLS...

CITY           SKY/WX    TMP DP  RH WIND       PRES   REMARKS
COLO. SPRINGS  PTSUNNY   63  50  62 CALM      30.27R
A. F. ACADEMY  FAIR      57  51  81 N3        30.27S
SCHRIEVER AFB  PTSUNNY   62  48  61 SW7       30.27R
CHEYENNE MTN   FAIR      62  47  58 NE3       30.24S
ELLICOTT       FAIR     N/A N/A N/A SW6       30.25S
FALCON         FAIR      62  45  54 SW6       30.31S
FORT CARSON    PTSUNNY   58  51  78 NW6       30.24R
LIMON          FAIR      61  54  77 S6        30.21R
MONUMENT HILL  FAIR      59  46  63 SW10      30.31R
CANON CITY     SUNNY     66  52  59 W14       30.23S
WALSENBURG     FAIR      66  50  55 W9        30.27R
TRINIDAD       FAIR      63  52  67 NW5       30.24R
$$

COZ042>045-048>051-090-091-171500-
...NORTHEAST COLORADO...

CITY           SKY/WX    TMP DP  RH WIND       PRES   REMARKS
GREELEY ARPT   FAIR      56  53  90 NW5       30.15R
AKRON          FAIR      64  50  60 S9        30.14F
BURLINGTON     PTSUNNY   62  58  86 SW8       30.16S
WRAY           NOT AVBL
YUMA           FAIR      61  54  77 S8        30.13S
STERLING       FAIR      57  54  88 S3        30.11S
HOLYOKE        FAIR      63  57  82 SW5       30.12F
FORT MORGAN    FAIR      59  50  70 CALM      30.14S
$$

COZ086-089-092>099-171500-
...SOUTHEAST COLORADO...

CITY           SKY/WX    TMP DP  RH WIND       PRES   REMARKS
PUEBLO         FAIR      66  54  65 CALM      30.18S
LA JUNTA       FAIR      66  56  70 E3        30.18R
LAMAR          FAIR      65  59  81 E5        30.15R
SPRINGFIELD      N/A     65  59  81 S7        30.19S
$$




USA.gov is the U.S. government's official web portal to all federal, state and local government web resources and services.